Radiation Dose at Monitoring Post of Fukushima Daini Nuclear Power Station
Date,Time,MP-1(microSv/h),MP-2(microSv/h),MP-3(microSv/h),MP-4(microSv/h),MP-5(microSv/h),MP-6(microSv/h),MP-7(microSv/h),Wind Direction,Wind Velocity(m/s),Rain
2020/11/24,00:00,0.179,0.161,0.268,0.253,0.248,0.145,0.086,west-northwest,7.9,No
2020/11/24,00:10,0.178,0.161,0.267,0.253,0.247,0.143,0.086,west-northwest,8.6,No
2020/11/24,00:20,0.179,0.162,0.267,0.253,0.247,0.144,0.086,west-northwest,8.5,No
2020/11/24,00:30,0.179,0.160,0.268,0.253,0.248,0.144,0.086,west,9.8,No
2020/11/24,00:40,0.179,0.161,0.269,0.254,0.248,0.145,0.087,west-northwest,9.0,No
2020/11/24,00:50,0.179,0.162,0.267,0.255,0.248,0.144,0.086,west-northwest,8.7,No
2020/11/24,01:00,0.180,0.160,0.266,0.252,0.248,0.143,0.086,west-northwest,8.2,No
2020/11/24,01:10,0.179,0.161,0.268,0.253,0.249,0.144,0.086,west-northwest,8.7,No
2020/11/24,01:20,0.180,0.162,0.268,0.254,0.248,0.144,0.086,west-northwest,11.2,No
2020/11/24,01:30,0.181,0.160,0.268,0.253,0.248,0.144,0.086,west-northwest,9.6,No
2020/11/24,01:40,0.181,0.161,0.268,0.252,0.248,0.144,0.087,west,10.4,No
2020/11/24,01:50,0.179,0.160,0.267,0.253,0.248,0.144,0.087,west-northwest,7.4,No
2020/11/24,02:00,0.179,0.160,0.268,0.254,0.248,0.144,0.087,northwest,6.0,No
2020/11/24,02:10,0.180,0.160,0.267,0.252,0.249,0.145,0.086,northwest,6.4,No
2020/11/24,02:20,0.179,0.160,0.267,0.254,0.248,0.143,0.086,north,2.4,No
2020/11/24,02:30,0.180,0.161,0.267,0.253,0.247,0.144,0.085,north-northwest,4.3,No
2020/11/24,02:40,0.180,0.160,0.269,0.253,0.248,0.145,0.087,northwest,4.4,No
2020/11/24,02:50,0.179,0.161,0.267,0.253,0.249,0.144,0.086,west-northwest,7.5,No
2020/11/24,03:00,0.179,0.160,0.267,0.253,0.247,0.144,0.086,west-northwest,9.6,No
2020/11/24,03:10,0.179,0.162,0.267,0.254,0.248,0.144,0.085,west-northwest,7.9,No
2020/11/24,03:20,0.179,0.161,0.268,0.252,0.248,0.144,0.086,northwest,8.7,No
2020/11/24,03:30,0.179,0.160,0.268,0.252,0.248,0.144,0.086,northwest,8.5,No
2020/11/24,03:40,0.180,0.160,0.268,0.253,0.248,0.143,0.087,northwest,9.8,No
2020/11/24,03:50,0.178,0.161,0.269,0.254,0.249,0.144,0.087,west-northwest,12.2,No
2020/11/24,04:00,0.178,0.159,0.267,0.253,0.247,0.143,0.086,northwest,8.4,No
2020/11/24,04:10,0.179,0.161,0.268,0.253,0.249,0.145,0.086,west-northwest,10.7,No
2020/11/24,04:20,0.179,0.159,0.267,0.253,0.249,0.144,0.086,west-northwest,9.3,No
2020/11/24,04:30,0.179,0.159,0.268,0.253,0.247,0.144,0.086,northwest,7.7,No
2020/11/24,04:40,0.179,0.160,0.269,0.252,0.248,0.144,0.086,northwest,6.7,No
2020/11/24,04:50,0.178,0.160,0.268,0.252,0.249,0.144,0.087,northwest,5.2,No
2020/11/24,05:00,0.180,0.161,0.268,0.253,0.247,0.144,0.086,northwest,8.5,No
2020/11/24,05:10,0.179,0.160,0.268,0.252,0.248,0.144,0.086,northwest,9.2,No
2020/11/24,05:20,0.180,0.162,0.268,0.252,0.248,0.145,0.087,west-northwest,9.0,No
2020/11/24,05:30,0.179,0.161,0.268,0.253,0.248,0.144,0.086,west-northwest,6.3,No
2020/11/24,05:40,0.179,0.161,0.268,0.254,0.248,0.144,0.087,northwest,7.1,No
2020/11/24,05:50,0.179,0.161,0.268,0.253,0.248,0.145,0.087,northwest,7.6,No
2020/11/24,06:00,0.179,0.161,0.268,0.253,0.248,0.144,0.086,northwest,6.5,No
2020/11/24,06:10,0.179,0.161,0.268,0.252,0.247,0.144,0.086,northwest,7.9,No
2020/11/24,06:20,0.179,0.160,0.268,0.254,0.248,0.144,0.086,northwest,9.5,No
2020/11/24,06:30,0.180,0.161,0.268,0.252,0.248,0.145,0.087,northwest,9.2,No
2020/11/24,06:40,0.180,0.160,0.268,0.254,0.249,0.144,0.086,northwest,6.4,No
2020/11/24,06:50,0.179,0.160,0.267,0.252,0.247,0.144,0.087,northwest,5.3,No
2020/11/24,07:00,0.179,0.161,0.269,0.254,0.248,0.145,0.086,northwest,7.0,No
2020/11/24,07:10,0.180,0.161,0.267,0.252,0.249,0.144,0.086,northwest,8.1,No
2020/11/24,07:20,0.179,0.162,0.268,0.253,0.248,0.144,0.086,west-northwest,7.3,No
2020/11/24,07:30,0.179,0.160,0.267,0.252,0.249,0.144,0.086,west-northwest,5.8,No
2020/11/24,07:40,0.180,0.161,0.269,0.253,0.249,0.144,0.086,northwest,4.9,No
2020/11/24,07:50,0.180,0.162,0.269,0.252,0.247,0.143,0.086,northwest,4.4,No
2020/11/24,08:00,0.179,0.161,0.267,0.252,0.249,0.144,0.087,northwest,3.4,No
2020/11/24,08:10,0.179,0.161,0.267,0.252,0.249,0.144,0.085,northwest,5.0,No
2020/11/24,08:20,0.180,0.162,0.267,0.251,0.248,0.144,0.087,northwest,5.5,No
2020/11/24,08:30,0.179,0.159,0.268,0.254,0.248,0.144,0.087,northwest,4.9,No
2020/11/24,08:40,0.180,0.160,0.268,0.252,0.248,0.144,0.087,northwest,5.3,No
2020/11/24,08:50,0.180,0.161,0.268,0.250,0.248,0.143,0.087,north-northwest,6.4,No
2020/11/24,09:00,0.180,0.161,0.268,0.253,0.249,0.143,0.086,north-northwest,3.8,No
2020/11/24,09:10,0.179,0.160,0.268,0.251,0.248,0.143,0.087,north-northwest,3.7,No
2020/11/24,09:20,0.180,0.161,0.268,0.252,0.249,0.142,0.086,north,2.8,No
2020/11/24,09:30,0.179,0.159,0.268,0.251,0.249,0.143,0.086,north,3.5,No
2020/11/24,09:40,0.179,0.161,0.268,0.253,0.246,0.145,0.086,north,4.0,No
2020/11/24,09:50,0.179,0.160,0.267,0.253,0.249,0.144,0.086,north,5.1,No
2020/11/24,10:00,0.178,0.160,0.269,0.252,0.246,0.144,0.086,north,3.5,No
2020/11/24,10:10,0.179,0.160,0.266,0.252,0.248,0.144,0.087,north-northwest,3.4,No
2020/11/24,10:20,0.178,0.159,0.267,0.253,0.246,0.144,0.085,northwest,5.9,No
2020/11/24,10:30,0.178,0.160,0.265,0.252,0.248,0.144,0.087,northwest,7.0,No
2020/11/24,10:40,0.179,0.161,0.267,0.252,0.246,0.144,0.086,north-northwest,6.2,No
2020/11/24,10:50,0.179,0.160,0.266,0.252,0.248,0.145,0.087,northwest,4.9,No
2020/11/24,11:00,0.177,0.160,0.269,0.252,0.248,0.144,0.086,northwest,5.8,No
2020/11/24,11:10,0.179,0.160,0.266,0.252,0.247,0.144,0.086,northwest,5.8,No
2020/11/24,11:20,0.178,0.160,0.268,0.253,0.247,0.144,0.086,northwest,5.1,No
2020/11/24,11:30,0.178,0.161,0.267,0.254,0.246,0.145,0.086,northwest,5.6,No
2020/11/24,11:40,0.179,0.160,0.267,0.252,0.248,0.144,0.087,northwest,3.9,No
2020/11/24,11:50,0.179,0.160,0.267,0.253,0.247,0.144,0.086,north-northeast,3.6,No
2020/11/24,12:00,0.178,0.161,0.267,0.252,0.245,0.144,0.086,north-northeast,5.5,No
2020/11/24,12:10,0.177,0.159,0.267,0.251,0.249,0.144,0.086,northeast,4.7,No
2020/11/24,12:20,0.179,0.160,0.269,0.253,0.246,0.143,0.086,northeast,4.8,No
2020/11/24,12:30,0.178,0.161,0.266,0.252,0.250,0.144,0.086,northeast,4.3,No
2020/11/24,12:40,0.180,0.160,0.268,0.253,0.247,0.143,0.086,northeast,3.5,No
2020/11/24,12:50,0.178,0.160,0.267,0.253,0.249,0.144,0.086,northeast,4.2,No
2020/11/24,13:00,0.180,0.161,0.268,0.253,0.248,0.144,0.086,east-northeast,3.9,No
2020/11/24,13:10,0.179,0.161,0.268,0.253,0.250,0.144,0.086,east-northeast,4.0,No
2020/11/24,13:20,0.180,0.161,0.267,0.252,0.246,0.144,0.086,east-northeast,3.9,No
2020/11/24,13:30,0.178,0.160,0.268,0.254,0.249,0.143,0.086,east-northeast,3.7,No
2020/11/24,13:40,0.180,0.160,0.267,0.253,0.247,0.144,0.087,east-northeast,3.4,No
2020/11/24,13:50,0.177,0.160,0.268,0.252,0.248,0.144,0.086,east,3.3,No
2020/11/24,14:00,0.179,0.160,0.266,0.253,0.246,0.144,0.086,east,1.5,No
2020/11/24,14:10,0.180,0.159,0.268,0.252,0.247,0.144,0.086,southeast,2.1,No
2020/11/24,14:20,0.178,0.160,0.266,0.254,0.247,0.144,0.086,south-southeast,3.5,No
2020/11/24,14:30,0.179,0.160,0.268,0.252,0.246,0.144,0.087,south,2.9,No
2020/11/24,14:40,0.179,0.161,0.268,0.252,0.249,0.144,0.086,south,2.4,No
2020/11/24,14:50,0.179,0.160,0.267,0.252,0.248,0.144,0.087,south-southwest,2.7,No
2020/11/24,15:00,0.177,0.161,0.267,0.253,0.248,0.144,0.085,south-southwest,2.4,No
2020/11/24,15:10,0.180,0.161,0.267,0.254,0.249,0.144,0.086,south-southwest,2.3,No
2020/11/24,15:20,0.179,0.161,0.267,0.253,0.248,0.143,0.085,south-southwest,2.1,No
2020/11/24,15:30,0.179,0.160,0.267,0.253,0.249,0.144,0.086,south,1.9,No
2020/11/24,15:40,0.180,0.160,0.267,0.253,0.248,0.144,0.086,south,2.0,No
2020/11/24,15:50,0.178,0.161,0.269,0.254,0.249,0.144,0.085,south,2.8,No
2020/11/24,16:00,0.180,0.161,0.267,0.253,0.248,0.144,0.086,south-southwest,2.3,No
2020/11/24,16:10,0.180,0.160,0.267,0.252,0.248,0.144,0.086,south-southwest,1.9,No
2020/11/24,16:20,0.178,0.161,0.268,0.253,0.248,0.144,0.086,southwest,1.7,No
2020/11/24,16:30,0.179,0.161,0.267,0.254,0.247,0.144,0.086,south-southwest,2.4,No
2020/11/24,16:40,0.178,0.160,0.269,0.251,0.250,0.144,0.087,south,0.8,No
2020/11/24,16:50,0.178,0.159,0.268,0.253,0.247,0.145,0.086,south,1.7,No
2020/11/24,17:00,0.179,0.161,0.267,0.254,0.248,0.145,0.086,east-southeast,1.0,No
2020/11/24,17:10,0.178,0.160,0.268,0.253,0.248,0.144,0.086,-,CALM,No
2020/11/24,17:20,0.179,0.161,0.268,0.254,0.248,0.145,0.086,west,0.6,No
2020/11/24,17:30,0.179,0.161,0.267,0.253,0.249,0.144,0.086,northwest,1.8,No
2020/11/24,17:40,0.179,0.161,0.268,0.252,0.248,0.145,0.086,west,1.3,No
2020/11/24,17:50,0.179,0.162,0.267,0.252,0.247,0.144,0.086,northwest,0.8,Yes
2020/11/24,18:00,0.178,0.161,0.266,0.253,0.248,0.144,0.087,west-northwest,1.2,No
2020/11/24,18:10,0.179,0.160,0.268,0.253,0.248,0.144,0.086,west-northwest,0.9,No
2020/11/24,18:20,0.180,0.159,0.267,0.254,0.248,0.142,0.086,west-northwest,1.1,No
2020/11/24,18:30,0.177,0.160,0.267,0.253,0.248,0.143,0.086,-,CALM,No
2020/11/24,18:40,0.178,0.160,0.268,0.252,0.248,0.144,0.085,southeast,0.8,No
2020/11/24,18:50,0.179,0.162,0.267,0.254,0.248,0.144,0.086,east,1.2,No
2020/11/24,19:00,0.179,0.161,0.268,0.254,0.247,0.144,0.087,-,CALM,No
2020/11/24,19:10,0.180,0.161,0.269,0.253,0.250,0.144,0.086,east,0.7,No
2020/11/24,19:20,0.179,0.161,0.266,0.254,0.248,0.145,0.086,-,CALM,No
2020/11/24,19:30,0.179,0.159,0.268,0.252,0.248,0.146,0.087,-,CALM,No
2020/11/24,19:40,0.179,0.161,0.267,0.253,0.248,0.145,0.086,southeast,0.9,No
2020/11/24,19:50,0.178,0.159,0.267,0.253,0.248,0.143,0.086,south-southeast,1.1,No
2020/11/24,20:00,0.179,0.161,0.266,0.253,0.250,0.143,0.087,south-southeast,2.8,No
2020/11/24,20:10,0.178,0.162,0.268,0.253,0.248,0.144,0.087,southeast,3.4,No
2020/11/24,20:20,0.178,0.160,0.268,0.252,0.248,0.143,0.086,southeast,3.5,No
2020/11/24,20:30,0.178,0.160,0.269,0.252,0.248,0.144,0.086,southeast,1.7,No
2020/11/24,20:40,0.178,0.160,0.266,0.254,0.249,0.144,0.085,south-southeast,2.1,No
2020/11/24,20:50,0.180,0.160,0.267,0.253,0.249,0.143,0.086,south-southeast,1.9,No
2020/11/24,21:00,0.178,0.159,0.268,0.252,0.246,0.144,0.087,southeast,1.6,No
2020/11/24,21:10,0.178,0.162,0.267,0.254,0.249,0.145,0.086,south,1.8,No
2020/11/24,21:20,0.179,0.161,0.268,0.253,0.248,0.144,0.086,south,1.8,No
2020/11/24,21:30,0.179,0.161,0.269,0.254,0.247,0.143,0.087,south-southwest,1.8,No
2020/11/24,21:40,0.178,0.160,0.267,0.254,0.250,0.145,0.086,south-southwest,2.3,No
2020/11/24,21:50,0.178,0.161,0.268,0.253,0.248,0.144,0.086,south-southwest,1.3,No
2020/11/24,22:00,0.178,0.161,0.269,0.253,0.250,0.144,0.086,south,1.4,No
2020/11/24,22:10,0.180,0.162,0.267,0.254,0.248,0.144,0.086,south,1.7,No
2020/11/24,22:20,0.179,0.162,0.269,0.253,0.249,0.145,0.087,south-southwest,1.7,No
2020/11/24,22:30,0.179,0.162,0.268,0.254,0.249,0.145,0.087,south-southwest,1.8,No
2020/11/24,22:40,0.181,0.161,0.268,0.254,0.248,0.145,0.086,southwest,2.7,No
2020/11/24,22:50,0.180,0.161,0.269,0.253,0.250,0.145,0.087,southwest,1.2,No
2020/11/24,23:00,0.180,0.160,0.267,0.253,0.248,0.144,0.086,west-southwest,1.4,No
2020/11/24,23:10,0.179,0.159,0.268,0.253,0.248,0.144,0.087,west-southwest,1.7,No
2020/11/24,23:20,0.178,0.160,0.268,0.253,0.250,0.144,0.087,west,2.2,No
2020/11/24,23:30,0.179,0.160,0.267,0.254,0.247,0.145,0.085,west-northwest,2.0,No
2020/11/24,23:40,0.179,0.159,0.269,0.253,0.249,0.143,0.087,west,1.0,No
2020/11/24,23:50,0.180,0.161,0.268,0.254,0.247,0.144,0.087,west-northwest,1.2,No
